METEOR 2-5 DEB, 45510

Orbit data source: Space-Track

METEOR 2-5 DEB, 45510 is space debris in LEO originally from a launch on Wed, 31 Oct 1979 UTC launched from the Plesetsk Missile And Space Complex (PKMTR). Debris objects in space refer to the collection of defunct objects orbiting the Earth. Examples of debris include non-operational satellites, rocket bodies, and fragments generated from explosions, collisions, or faulty payload assembly.

Loading next visibility...
Identifier
45510, 1979-095CS
Orbit
LEO
Country
Flag of CISCIS
Related business
Manufacturer
Unknown
Mission
Spacecraft
Bus & Motor
Unknown
Mass
Unknown
Launch date (UTC)
1979-10-31 (46 years ago)
Launch vehicle
Unknown
Launch site
Plesetsk Missile And Space Complex (PKMTR)
Object type
Payload
Rocket body
Debris
Shape & HBR
Unknown shape, 0.1 m
Radar Cross Section
Small (<0.1 m²)

Expand to show TLE details & history
Last TLE update: 6 days ago

TLE from 6 days ago
0 METEOR 2-5 DEB
1 45510U 79095CS  25288.73933259  .00003215  00000-0  14509-2 0  9993
2 45510  81.1899  86.8520 0015281 200.3859 159.6710 14.21910041407728
Epoch: 2025-10-15T17:44Z
TLE epoch observation values (Epoch: 2025-10-15T17:44:38.335Z)
Latitude
-0.00006°
Longitude
156.18318°
Altitude
832.131 km
Speed
7.432 km/s
True Right ascension
05h 47m 24s
True Declination
0° 00' 00"
Sunlit
Object was in daylight at epoch
Visualization orbit readout
Latitude
Unknown
Longitude
Unknown
Altitude
Unknown
Speed
Unknown
Apparent Right ascension
Unknown
Apparent Declination
Unknown
Sunlit
N/A
Visualization observer readout
Local Sidereal Time
11:20:28
Azimuth
Unknown
Elevation
Unknown
Doppler factor
Unknown
Orbital elements
Apogee altitude
827.055 km
Perigee altitude
805.068 km
Semi-major axis
7,194.198 km
Eccentricity
0.00153
Inclination
81.1899°
RAAN
86.852°
Arg. of periapsis
200.3859°
True anomaly
159.73173°
Mean anomaly
159.671°
Eccentric anomaly
159.70137°
Mean motion
3.55688 °/min
Orbital period
101.21 mins
BSTAR
0.0014509
Loading maneuver chart data...
Computing Atmospheric mass density...

Documentation

Showing up to 5 results
|